DECAYED

STARLINK-1015, 44721 (Decayed)

Orbit data source: Space-Track

STARLINK-1015, 44721 was a payload satellite owned by SpaceX/Seattle (US) in LEO that was launched on Mon, 11 Nov 2019 UTC via an FALCON 9 launch vehicle from the Air Force Eastern Test Range (AFETR). Payload-class satellites include a variety of spacecraft equipped with specific instruments for various scientific and technological missions. These include communications satellites like Starlink; space stations such as the ISS; scientific satellites like the Hubble; Earth observation satellites from companies like Planet Labs, Umbra, and HawkEye 360; GPS; miniature CubeSats for education and research; and military/defense satellites.

Not visible in the next 10 days
Identifier
44721, 2019-074J
Orbit
Decayed
Country
Flag of USUS
Related business
Manufacturer
SpaceX/Seattle
Mission
Decayed Commercial Communications
Bus & Motor
STARLINK, Unknown motor
Mass
260 kg wet, ~248 kg dry
Launch date (UTC)
2019-11-11 (6 years ago)
Launch vehicle
FALCON 9
Launch site
Air Force Eastern Test Range (AFETR)
Object type
Payload
Rocket body
Debris
Shape & HBR
Box + 1 Pan, 10.1 m
Radar Cross Section
13.562 m², Large (>1 m²)

Expand to show TLE details & history
Last TLE update: 2 weeks ago

TLE from 2 weeks ago
0 STARLINK-1015
1 44721U 19074J   25276.90238862  .09727808  12381-4  64790-3 0  9998
2 44721  53.0278  97.1892 0004010 268.5585  91.5002 16.40724911326132
Epoch: 2025-10-03T21:39Z
TLE epoch observation values (Epoch: 2025-10-03T21:39:26.376Z)
Latitude
-0.00006°
Longitude
119.48723°
Altitude
164.872 km
Speed
7.809 km/s
True Right ascension
06h 28m 45s
True Declination
0° 00' 00"
Sunlit
Object was in daylight at epoch
Visualization orbit readout
Latitude
Unknown
Longitude
Unknown
Altitude
Unknown
Speed
Unknown
Apparent Right ascension
Unknown
Apparent Declination
Unknown
Sunlit
N/A
Visualization observer readout
Local Sidereal Time
12:59:16
Azimuth
Unknown
Elevation
Unknown
Doppler factor
Unknown
Orbital elements
Apogee altitude
166.789 km
Perigee altitude
161.542 km
Semi-major axis
6,542.302 km
Eccentricity
0.0004
Inclination
53.0278°
RAAN
97.1892°
Arg. of periapsis
268.5585°
True anomaly
91.54613°
Mean anomaly
91.5002°
Eccentric anomaly
91.52317°
Mean motion
4.10154 °/min
Orbital period
87.77 mins
BSTAR
0.0006479
Loading maneuver chart data...
Computing Atmospheric mass density...

Documentation

Showing up to 5 results
|